Zurück zum Katalog

CZ-4C R/B

AktivSSO
NORAD 40879·ROCKET BODY·🇨🇳 China

Gestartet Aug 27, 2015 von Taiyuan Satellite Launch Center

Loading…

Nächste Überflüge (nächste 24 Stunden)

TLE

AktuellSource: Space-Track

Epoche: Sep 14, 2026, 11:27 UTC

1 40879U 15040B   26257.47739567 -.00000050  00000-0 -30314-5 0  9991
2 40879 100.5751  67.4552 0092790 238.8092 120.3908 13.33328528537867

Verfolge CZ-4C R/B in Echtzeit mit AllMySat

Download on the App Store